When you browse on this site, cookies collect data to enhance your experience and personalize the content and advertising you see.
Visit our Privacy Policy to learn more. By continuing to use the site, you agree to this use of cookies and data.
  • In Hungary
  • List of Countries
  • For 7 days
  • Water Temperature
  • Weather Map
  • News
  • Weather Widgets
  • user-avatar
    Login

    Hourly Weather Barinovka

    Today, 18 October, Friday

    Time Temperature Precipitation Wind Pressure Humidity
    00:00 +5°C° 0 mm 6 mps 764 mmHg 55%
    01:00 +6°C° 0 mm 5 mps 763 mmHg 56%
    02:00 +5°C° 0 mm 5 mps 763 mmHg 57%
    03:00 +5°C° 0 mm 5 mps 763 mmHg 58%
    04:00 +5°C° 0 mm 5 mps 762 mmHg 59%
    05:00 +5°C° 0 mm 5 mps 762 mmHg 61%
    06:00 +3°C° 0 mm 5 mps 761 mmHg 62%
    07:00 +4°C° 0 mm 6 mps 761 mmHg 59%
    08:00 +7°C° 0 mm 6 mps 761 mmHg 57%
    09:00 +8°C° 0 mm 6 mps 761 mmHg 54%
    10:00 +9°C° 0 mm 7 mps 760 mmHg 53%
    11:00 +10°C° 0 mm 7 mps 760 mmHg 51%
    12:00 +12°C° 0 mm 7 mps 760 mmHg 50%
    13:00 +12°C° 0 mm 7 mps 759 mmHg 51%
    14:00 +13°C° 0 mm 6 mps 759 mmHg 52%
    15:00 +13°C° 0 mm 6 mps 758 mmHg 55%
    16:00 +12°C° 0 mm 5 mps 758 mmHg 60%
    17:00 +10°C° 0 mm 5 mps 758 mmHg 65%
    18:00 +11°C° 0 mm 4 mps 758 mmHg 70%
    19:00 +11°C° 0 mm 4 mps 758 mmHg 72%
    20:00 +11°C° 0 mm 3 mps 758 mmHg 74%
    21:00 +11°C° 0 mm 3 mps 758 mmHg 76%
    22:00 +11°C° 0 mm 3 mps 758 mmHg 80%
    23:00 +12°C° 0 mm 2 mps 758 mmHg 83%

    Tomorrow, 19 October, Saturday

    Time Temperature Precipitation Wind Pressure Humidity
    00:00 +12°C° 0 mm 2 mps 758 mmHg 87%
    01:00 +10°C° 0 mm 2 mps 758 mmHg 88%
    02:00 +10°C° 0 mm 2 mps 758 mmHg 90%
    03:00 +9°C° 0 mm 2 mps 759 mmHg 92%
    04:00 +9°C° 0 mm 2 mps 759 mmHg 92%
    05:00 +9°C° 0 mm 2 mps 759 mmHg 92%
    06:00 +9°C° 0 mm 2 mps 759 mmHg 92%
    07:00 +9°C° 0 mm 2 mps 760 mmHg 91%
    08:00 +10°C° 0 mm 2 mps 760 mmHg 90%
    09:00 +10°C° 0 mm 2 mps 761 mmHg 88%
    10:00 +10°C° 0 mm 3 mps 761 mmHg 88%
    11:00 +10°C° 0 mm 3 mps 761 mmHg 88%
    12:00 +10°C° 0 mm 4 mps 761 mmHg 88%
    13:00 +9°C° 0 mm 3 mps 762 mmHg 85%
    14:00 +9°C° 0 mm 3 mps 762 mmHg 83%
    15:00 +9°C° 0 mm 3 mps 762 mmHg 80%
    16:00 +9°C° 0 mm 3 mps 763 mmHg 80%
    17:00 +8°C° 0 mm 3 mps 763 mmHg 80%
    18:00 +8°C° 0 mm 3 mps 763 mmHg 81%
    19:00 +7°C° 0 mm 3 mps 764 mmHg 82%
    20:00 +5°C° 0 mm 3 mps 764 mmHg 83%
    21:00 +5°C° 0 mm 3 mps 765 mmHg 85%
    22:00 +4°C° 0 mm 3 mps 765 mmHg 86%
    23:00 +4°C° 0 mm 3 mps 765 mmHg 87%

    Day after tomorrow, 20 October, Sunday

    Time Temperature Precipitation Wind Pressure Humidity
    00:00 +4°C° 0 mm 2 mps 765 mmHg 88%
    01:00 +4°C° 0 mm 2 mps 765 mmHg 89%
    02:00 +4°C° 0 mm 2 mps 766 mmHg 90%
    03:00 +3°C° 0 mm 2 mps 766 mmHg 91%
    04:00 +3°C° 0 mm 2 mps 766 mmHg 92%
    05:00 +3°C° 0 mm 2 mps 767 mmHg 93%
    06:00 +4°C° 0 mm 1 mps 767 mmHg 94%
    07:00 +5°C° 0 mm 1 mps 767 mmHg 90%
    08:00 +6°C° 0 mm 1 mps 767 mmHg 87%
    09:00 +8°C° 0 mm 1 mps 767 mmHg 83%
    10:00 +9°C° 0 mm 1 mps 768 mmHg 79%
    11:00 +9°C° 0 mm 2 mps 768 mmHg 74%
    12:00 +10°C° 0 mm 2 mps 768 mmHg 70%
    13:00 +10°C° 0 mm 2 mps 768 mmHg 69%
    14:00 +10°C° 0 mm 2 mps 768 mmHg 67%
    15:00 +12°C° 0 mm 2 mps 768 mmHg 66%
    16:00 +10°C° 0 mm 2 mps 768 mmHg 67%
    17:00 +10°C° 0 mm 2 mps 768 mmHg 69%
    18:00 +9°C° 0 mm 2 mps 768 mmHg 71%
    19:00 +9°C° 0 mm 3 mps 768 mmHg 70%
    20:00 +9°C° 0 mm 3 mps 768 mmHg 68%
    21:00 +8°C° 0 mm 3 mps 769 mmHg 67%
    22:00 +8°C° 0 mm 3 mps 768 mmHg 67%
    23:00 +8°C° 0 mm 3 mps 768 mmHg 66%

    21 October, Monday

    Time Temperature Precipitation Wind Pressure Humidity
    00:00 +8°C° 0 mm 3 mps 768 mmHg 66%
    01:00 +7°C° 0 mm 3 mps 768 mmHg 67%
    02:00 +7°C° 0 mm 3 mps 768 mmHg 68%
    03:00 +7°C° 0 mm 3 mps 768 mmHg 69%
    04:00 +5°C° 0 mm 3 mps 768 mmHg 72%
    05:00 +5°C° 0 mm 3 mps 768 mmHg 74%
    06:00 +5°C° 0 mm 3 mps 768 mmHg 76%
    07:00 +7°C° 0 mm 3 mps 768 mmHg 72%
    08:00 +7°C° 0 mm 4 mps 768 mmHg 68%
    09:00 +8°C° 0 mm 4 mps 768 mmHg 64%
    10:00 +10°C° 0 mm 4 mps 768 mmHg 62%
    11:00 +11°C° 0 mm 4 mps 768 mmHg 59%
    12:00 +12°C° 0 mm 5 mps 768 mmHg 57%
    13:00 +13°C° 0 mm 5 mps 767 mmHg 57%
    14:00 +13°C° 0 mm 5 mps 767 mmHg 58%
    15:00 +13°C° 0 mm 5 mps 767 mmHg 58%
    16:00 +12°C° 0 mm 5 mps 767 mmHg 61%
    17:00 +10°C° 0 mm 5 mps 767 mmHg 64%
    18:00 +9°C° 0 mm 5 mps 766 mmHg 67%
    19:00 +8°C° 0 mm 5 mps 766 mmHg 67%
    20:00 +8°C° 0 mm 5 mps 766 mmHg 67%
    21:00 +8°C° 0 mm 5 mps 766 mmHg 67%
    22:00 +8°C° 0 mm 6 mps 765 mmHg 67%
    23:00 +7°C° 0 mm 6 mps 765 mmHg 68%

    22 October, Tuesday

    Time Temperature Precipitation Wind Pressure Humidity
    00:00 +7°C° 0 mm 6 mps 764 mmHg 68%
    01:00 +7°C° 0 mm 6 mps 764 mmHg 69%
    02:00 +7°C° 0 mm 6 mps 764 mmHg 70%
    03:00 +7°C° 0 mm 6 mps 763 mmHg 71%
    04:00 +7°C° 0 mm 6 mps 763 mmHg 73%
    05:00 +7°C° 0 mm 6 mps 763 mmHg 75%
    06:00 +7°C° 0 mm 6 mps 763 mmHg 77%
    07:00 +8°C° 0 mm 7 mps 762 mmHg 75%
    08:00 +9°C° 0 mm 7 mps 762 mmHg 73%
    09:00 +10°C° 0 mm 7 mps 762 mmHg 71%
    10:00 +11°C° 0 mm 7 mps 761 mmHg 68%
    11:00 +12°C° 0 mm 7 mps 761 mmHg 65%
    12:00 +14°C° 0 mm 7 mps 761 mmHg 62%
    13:00 +14°C° 0 mm 7 mps 760 mmHg 63%
    14:00 +14°C° 0 mm 6 mps 760 mmHg 63%
    15:00 +14°C° 0 mm 6 mps 760 mmHg 64%
    16:00 +13°C° 0.9 mm 6 mps 759 mmHg 70%
    17:00 +13°C° 0.9 mm 5 mps 759 mmHg 77%
    18:00 +12°C° 0.9 mm 5 mps 759 mmHg 83%
    19:00 +12°C° 0.5 mm 5 mps 759 mmHg 86%
    20:00 +12°C° 0.5 mm 4 mps 759 mmHg 88%
    21:00 +12°C° 0.5 mm 4 mps 759 mmHg 90%
    22:00 +12°C° 0.1 mm 4 mps 758 mmHg 92%
    23:00 +11°C° 0.1 mm 3 mps 758 mmHg 93%

    23 October, Wednesday

    Time Temperature Precipitation Wind Pressure Humidity
    00:00 +12°C° 0.1 mm 2 mps 758 mmHg 94%
    01:00 +12°C° 0.7 mm 2 mps 758 mmHg 95%
    02:00 +12°C° 0.7 mm 2 mps 758 mmHg 96%
    03:00 +12°C° 0.7 mm 2 mps 758 mmHg 97%
    04:00 +12°C° 0.2 mm 2 mps 758 mmHg 97%
    05:00 +12°C° 0.2 mm 2 mps 758 mmHg 97%
    06:00 +10°C° 0.2 mm 2 mps 759 mmHg 96%
    07:00 +12°C° 0.1 mm 2 mps 759 mmHg 92%
    08:00 +11°C° 0.1 mm 3 mps 759 mmHg 88%
    09:00 +11°C° 0.1 mm 3 mps 760 mmHg 84%
    10:00 +11°C° 0 mm 3 mps 760 mmHg 80%
    11:00 +11°C° 0 mm 3 mps 760 mmHg 75%
    12:00 +11°C° 0 mm 4 mps 761 mmHg 70%
    13:00 +11°C° 0 mm 3 mps 761 mmHg 67%
    14:00 +11°C° 0 mm 3 mps 761 mmHg 65%
    15:00 +10°C° 0 mm 3 mps 761 mmHg 62%
    16:00 +9°C° 0 mm 3 mps 761 mmHg 67%
    17:00 +8°C° 0 mm 2 mps 762 mmHg 72%
    18:00 +7°C° 0 mm 2 mps 762 mmHg 77%
    19:00 +7°C° 0 mm 1 mps 762 mmHg 79%
    20:00 +7°C° 0 mm 1 mps 762 mmHg 81%
    21:00 +7°C° 0 mm 1 mps 762 mmHg 83%
    22:00 +6°C° 0 mm 1 mps 762 mmHg 83%
    23:00 +6°C° 0 mm 1 mps 762 mmHg 83%
    Show more